• In Denmark
  • List of Countries
  • For 7 days
  • Water Temperature
  • Satellite Maps
  • Weather Map
  • Weather Widgets
  • user-avatar
    Login

    Hourly Weather Dardamty

    Today, 21 August, Tuesday

    Time Temperature Precipitation Wind Pressure Humidity
    00:00 +22°C° 0 mm 3 mps 659 mmHg 41%
    01:00 +22°C° 0 mm 3 mps 659 mmHg 40%
    02:00 +22°C° 0 mm 3 mps 659 mmHg 40%
    03:00 +21°C° 0 mm 4 mps 660 mmHg 43%
    04:00 +21°C° 0 mm 5 mps 660 mmHg 46%
    05:00 +20°C° 0 mm 6 mps 660 mmHg 51%
    06:00 +21°C° 0 mm 6 mps 661 mmHg 53%
    07:00 +21°C° 0 mm 7 mps 661 mmHg 55%
    08:00 +22°C° 0 mm 7 mps 661 mmHg 56%
    09:00 +22°C° 0 mm 6 mps 662 mmHg 55%
    10:00 +23°C° 0 mm 5 mps 662 mmHg 53%
    11:00 +23°C° 0 mm 5 mps 663 mmHg 52%
    12:00 +23°C° 0.1 mm 4 mps 663 mmHg 51%
    13:00 +25°C° 0.1 mm 4 mps 663 mmHg 50%
    14:00 +25°C° 0.1 mm 3 mps 663 mmHg 49%
    15:00 +25°C° 0.1 mm 3 mps 663 mmHg 51%
    16:00 +24°C° 0.1 mm 3 mps 663 mmHg 52%
    17:00 +24°C° 0.1 mm 3 mps 663 mmHg 53%
    18:00 +22°C° 0.1 mm 3 mps 663 mmHg 57%
    19:00 +21°C° 0.1 mm 3 mps 663 mmHg 61%
    20:00 +19°C° 0.1 mm 2 mps 662 mmHg 65%
    21:00 +19°C° 0.2 mm 2 mps 662 mmHg 66%
    22:00 +19°C° 0.2 mm 2 mps 662 mmHg 67%
    23:00 +18°C° 0.2 mm 2 mps 662 mmHg 69%

    Tomorrow, 22 August, Wednesday

    Time Temperature Precipitation Wind Pressure Humidity
    00:00 +18°C° 0.1 mm 2 mps 662 mmHg 70%
    01:00 +18°C° 0.1 mm 1 mps 662 mmHg 72%
    02:00 +16°C° 0.1 mm 1 mps 661 mmHg 73%
    03:00 +16°C° 0.1 mm 1 mps 661 mmHg 74%
    04:00 +16°C° 0.1 mm 1 mps 661 mmHg 75%
    05:00 +16°C° 0.1 mm 1 mps 661 mmHg 76%
    06:00 +18°C° 0 mm 1 mps 662 mmHg 72%
    07:00 +19°C° 0 mm 1 mps 662 mmHg 68%
    08:00 +19°C° 0 mm 2 mps 662 mmHg 64%
    09:00 +20°C° 0 mm 2 mps 662 mmHg 61%
    10:00 +20°C° 0 mm 2 mps 662 mmHg 58%
    11:00 +21°C° 0 mm 2 mps 663 mmHg 55%
    12:00 +23°C° 0 mm 2 mps 663 mmHg 52%
    13:00 +23°C° 0 mm 2 mps 663 mmHg 50%
    14:00 +24°C° 0 mm 2 mps 663 mmHg 47%
    15:00 +24°C° 0.1 mm 2 mps 663 mmHg 48%
    16:00 +24°C° 0.1 mm 1 mps 663 mmHg 49%
    17:00 +23°C° 0.1 mm 1 mps 663 mmHg 49%
    18:00 +22°C° 0.1 mm 1 mps 663 mmHg 54%
    19:00 +21°C° 0.1 mm 1 mps 663 mmHg 59%
    20:00 +19°C° 0.1 mm 1 mps 663 mmHg 63%
    21:00 +19°C° 0 mm 1 mps 662 mmHg 65%
    22:00 +18°C° 0 mm 1 mps 662 mmHg 66%
    23:00 +16°C° 0 mm 1 mps 662 mmHg 68%

    Day after tomorrow, 23 August, Thursday

    Time Temperature Precipitation Wind Pressure Humidity
    00:00 +16°C° 0 mm 1 mps 662 mmHg 69%
    01:00 +15°C° 0 mm 1 mps 661 mmHg 71%
    02:00 +15°C° 0 mm 1 mps 661 mmHg 73%
    03:00 +14°C° 0 mm 1 mps 661 mmHg 73%
    04:00 +14°C° 0 mm 1 mps 661 mmHg 74%
    05:00 +13°C° 0 mm 1 mps 661 mmHg 75%
    06:00 +16°C° 0 mm 1 mps 661 mmHg 67%
    07:00 +18°C° 0 mm 2 mps 662 mmHg 60%
    08:00 +20°C° 0 mm 2 mps 662 mmHg 52%
    09:00 +21°C° 0 mm 2 mps 662 mmHg 48%
    10:00 +23°C° 0 mm 2 mps 662 mmHg 44%
    11:00 +24°C° 0 mm 2 mps 662 mmHg 40%
    12:00 +25°C° 0 mm 2 mps 662 mmHg 38%
    13:00 +26°C° 0 mm 2 mps 662 mmHg 36%
    14:00 +26°C° 0 mm 2 mps 662 mmHg 35%
    15:00 +26°C° 0 mm 2 mps 662 mmHg 35%
    16:00 +26°C° 0 mm 1 mps 662 mmHg 36%
    17:00 +25°C° 0 mm 1 mps 661 mmHg 36%
    18:00 +23°C° 0 mm 1 mps 661 mmHg 42%
    19:00 +21°C° 0 mm 1 mps 661 mmHg 47%
    20:00 +19°C° 0 mm 1 mps 661 mmHg 52%
    21:00 +19°C° 0 mm 1 mps 661 mmHg 54%
    22:00 +18°C° 0 mm 1 mps 660 mmHg 56%
    23:00 +18°C° 0 mm 1 mps 660 mmHg 58%

    24 August, Friday

    Time Temperature Precipitation Wind Pressure Humidity
    00:00 +16°C° 0 mm 1 mps 660 mmHg 60%
    01:00 +16°C° 0 mm 1 mps 659 mmHg 61%
    02:00 +15°C° 0 mm 2 mps 659 mmHg 63%
    03:00 +15°C° 0 mm 1 mps 659 mmHg 63%
    04:00 +15°C° 0 mm 1 mps 659 mmHg 64%
    05:00 +15°C° 0 mm 1 mps 659 mmHg 64%
    06:00 +18°C° 0 mm 1 mps 659 mmHg 56%
    07:00 +19°C° 0 mm 2 mps 660 mmHg 49%
    08:00 +21°C° 0 mm 2 mps 660 mmHg 41%
    09:00 +24°C° 0 mm 2 mps 661 mmHg 38%
    10:00 +25°C° 0 mm 2 mps 661 mmHg 34%
    11:00 +26°C° 0 mm 3 mps 661 mmHg 31%
    12:00 +27°C° 0 mm 2 mps 661 mmHg 30%
    13:00 +27°C° 0 mm 2 mps 661 mmHg 29%
    14:00 +28°C° 0 mm 2 mps 660 mmHg 28%
    15:00 +27°C° 0 mm 2 mps 661 mmHg 29%
    16:00 +27°C° 0 mm 2 mps 661 mmHg 30%
    17:00 +27°C° 0 mm 1 mps 661 mmHg 31%
    18:00 +24°C° 0 mm 1 mps 661 mmHg 36%
    19:00 +22°C° 0 mm 1 mps 660 mmHg 40%
    20:00 +20°C° 0 mm 1 mps 660 mmHg 44%
    21:00 +19°C° 0 mm 2 mps 660 mmHg 45%
    22:00 +18°C° 0 mm 2 mps 660 mmHg 45%
    23:00 +18°C° 0 mm 2 mps 660 mmHg 45%

    25 August, Saturday

    Time Temperature Precipitation Wind Pressure Humidity
    00:00 +17°C° 0 mm 2 mps 659 mmHg 46%
    01:00 +17°C° 0 mm 2 mps 659 mmHg 48%
    02:00 +16°C° 0 mm 2 mps 658 mmHg 49%
    03:00 +16°C° 0 mm 2 mps 658 mmHg 50%
    04:00 +16°C° 0 mm 2 mps 658 mmHg 51%
    05:00 +15°C° 0 mm 2 mps 658 mmHg 52%
    06:00 +18°C° 0 mm 2 mps 658 mmHg 46%
    07:00 +20°C° 0 mm 2 mps 659 mmHg 41%
    08:00 +22°C° 0 mm 3 mps 659 mmHg 35%
    09:00 +25°C° 0 mm 3 mps 659 mmHg 33%
    10:00 +26°C° 0 mm 3 mps 659 mmHg 30%
    11:00 +28°C° 0 mm 3 mps 659 mmHg 28%
    12:00 +28°C° 0 mm 3 mps 659 mmHg 27%
    13:00 +28°C° 0 mm 3 mps 658 mmHg 27%
    14:00 +29°C° 0 mm 3 mps 658 mmHg 26%
    15:00 +28°C° 0 mm 2 mps 658 mmHg 29%
    16:00 +27°C° 0 mm 2 mps 658 mmHg 33%
    17:00 +27°C° 0 mm 1 mps 658 mmHg 36%
    18:00 +25°C° 0 mm 1 mps 658 mmHg 39%
    19:00 +24°C° 0 mm 1 mps 658 mmHg 41%
    20:00 +22°C° 0 mm 1 mps 658 mmHg 43%
    21:00 +22°C° 0 mm 1 mps 658 mmHg 44%
    22:00 +21°C° 0 mm 1 mps 657 mmHg 45%
    23:00 +21°C° 0 mm 1 mps 657 mmHg 46%

    26 August, Sunday

    Time Temperature Precipitation Wind Pressure Humidity
    00:00 +20°C° 0 mm 1 mps 657 mmHg 48%
    01:00 +20°C° 0 mm 1 mps 657 mmHg 50%
    02:00 +19°C° 0 mm 1 mps 656 mmHg 52%
    03:00 +19°C° 0 mm 1 mps 656 mmHg 53%
    04:00 +19°C° 0 mm 1 mps 656 mmHg 53%
    05:00 +18°C° 0 mm 1 mps 656 mmHg 54%
    06:00 +20°C° 0 mm 1 mps 657 mmHg 50%
    07:00 +20°C° 0 mm 2 mps 657 mmHg 46%
    08:00 +21°C° 0 mm 2 mps 658 mmHg 42%
    09:00 +23°C° 0 mm 2 mps 658 mmHg 41%
    10:00 +22°C° 0 mm 3 mps 658 mmHg 40%
    11:00 +24°C° 0 mm 3 mps 658 mmHg 39%
    12:00 +23°C° 0 mm 4 mps 658 mmHg 39%
    13:00 +23°C° 0 mm 4 mps 659 mmHg 39%
    14:00 +23°C° 0 mm 5 mps 659 mmHg 39%
    15:00 +23°C° 0 mm 5 mps 659 mmHg 41%
    16:00 +22°C° 0 mm 5 mps 659 mmHg 44%
    17:00 +21°C° 0 mm 5 mps 659 mmHg 47%
    18:00 +20°C° 0 mm 4 mps 660 mmHg 50%
    19:00 +19°C° 0 mm 3 mps 660 mmHg 54%
    20:00 +17°C° 0 mm 3 mps 660 mmHg 57%
    21:00 +17°C° 0 mm 2 mps 659 mmHg 60%
    22:00 +16°C° 0 mm 2 mps 659 mmHg 62%
    23:00 +15°C° 0 mm 1 mps 659 mmHg 65%
    Show more